Location: Unspecified
(15.1830°N, 0.0000°E)
Time: 06:06:46
(UTC+00:00)

ISS - Visible Passes

Search period start: 24 April 2019 00:00
Search period end: 04 May 2019 00:00
Orbit: 408 x 410 km, 51.6° (Epoch: 24 April)

Date Brightness Start Highest point End Pass type
(mag) Time Alt. Az. Time Alt. Az. Time Alt. Az.
24 Apr -2.9 05:04:36 13° WSW 05:07:11 33° NW 05:10:11 10° NNE visible
25 Apr -3.9 04:16:27 87° NE 04:16:27 87° NE 04:19:41 10° NE visible
26 Apr -0.4 03:28:09 13° ENE 03:28:09 13° ENE 03:28:37 10° ENE visible
27 Apr -1.6 04:12:30 17° NNW 04:12:30 17° NNW 04:13:51 10° N visible
